Regional Weather Roundup
Issued by NWS

Home | Current Version | Previous Version | Text Only | Print | Product List | Glossary Off
Versions: 1 2 3 4 5 6 7 8 9 10 11 12 13 14 15 16 17 18 19 20 21 22 23 24 25 26 27 28 29 30 31 32 33 34 35 36 37 38 39 40 41 42 43 44 45 46 47 48 49 50

000
ASUS43 KIND 280459
RWRIN

WEATHER ROUNDUP FOR INDIANA
NATIONAL WEATHER SERVICE INDIANAPOLIS IN
100 AM EDT THU MAY 28 2015

NOTE: "FAIR" INDICATES FEW OR NO CLOUDS BELOW 12,000 FEET WITH NO
SIGNIFICANT WEATHER AND/OR OBSTRUCTIONS TO VISIBILITY.

* - STATION DOES NOT REPORT WEATHER SUCH AS PRECIPITATION OR FOG.

+ - STATION NOT QUALITY CONTROLLED BY THE NATIONAL WEATHER SERVICE.
    USE DATA WITH CAUTION...ESPECIALLY DEWPOINT AND RELATIVE
    HUMIDITY OBSERVATIONS.

INZ001>003-010>013-019-020-280600-
NORTHWEST INDIANA

CITY           SKY/WX    TMP DP  RH WIND       PRES   REMARKS
MONTICELLO +   CLEAR     60  57  89 N3        30.14R
RENSSELAER +   CLEAR     61  57  88 CALM      30.15R

$$

LMZ046-743>745-280600-
SOUTHERN LAKE MICHIGAN

STATION/POSITION TIME  TEMP    WIND        PRES    WAVE
                       AIR SEA DIR/SP/G            HT
                 (UTC) (F)     (DEG/KT/KT) (MB)    (FT)
BURNS HARBOR     0400   61      CALM  /  1 1021.0R
MICHIGAN CITY    0400   60     110/  2/  3   N/A
5NW MICH CITY    0400   56 53  160/  4/  4   N/A     0

$$

INZ004-005-014>016-021>024-280600-
NORTH CENTRAL INDIANA

CITY           SKY/WX    TMP DP  RH WIND       PRES   REMARKS
GOSHEN         CLEAR     56  54  93 NW6       30.14R
SOUTH BEND     CLEAR     57  54  89 CALM      30.15S
WARSAW +       CLEAR     59  55  88 CALM      30.14R

$$

INZ006>009-017-018-025>027-280600-
NORTHEAST INDIANA

CITY           SKY/WX    TMP DP  RH WIND       PRES   REMARKS
ANGOLA *+      CLEAR     59  55  88 NW3       30.14R
FORT WAYNE     PTCLDY    60  57  89 W3        30.14R

$$

INZ028-029-035-036-043>045-051>053-280600-
WEST CENTRAL INDIANA

CITY           SKY/WX    TMP DP  RH WIND       PRES   REMARKS
CRAWFORDSVL +  CLEAR     63  54  73 N6        30.14S
GREENCASTLE +  PTCLDY    61  59  94 CALM      30.15R
LAFAYETTE      CLEAR     60  57  89 CALM      30.14R
TERRE HAUTE    PTCLDY    64  59  83 CALM      30.14R

$$

INZ030>032-037>040-046>048-054>057-064-065-280600-
CENTRAL INDIANA

CITY           SKY/WX    TMP DP  RH WIND       PRES   REMARKS
GREENWOOD *+   MOCLDY    68  61  77 CALM      30.14R
INDIANAPOLIS   CLOUDY    67  62  84 W5        30.12R
-EAGLE CREEK   MOCLDY    66  64  93 N7        30.13R
KOKOMO *+      CLEAR     61  55  82 CALM      30.15R
MT COMFORT *+  MOCLDY    68  63  83 NW10      30.15R
SHELBYVILLE    MOCLDY    71  65  81 S9        30.13R

$$

INZ033-034-041-042-049-050-058-059-280600-
EAST CENTRAL INDIANA

CITY           SKY/WX    TMP DP  RH WIND       PRES   REMARKS
MUNCIE         MOCLDY    65  60  84 N5        30.14R

$$

INZ060-061-067>069-081>083-085>088-280600-
SOUTHWEST INDIANA

CITY           SKY/WX    TMP DP  RH WIND       PRES   REMARKS
EVANSVILLE     MOCLDY    68  64  87 SW5       30.15R
HUNTINGBURG *+ MOCLDY    66  61  82 S3        30.16R

$$

INZ062-063-066-070>080-084-089>092-280600-
SOUTH CENTRAL AND SOUTHEAST INDIANA

CITY           SKY/WX    TMP DP  RH WIND       PRES   REMARKS
BLOOMINGTON    MOCLDY    68  64  87 SW5       30.15R
MADISON *+     MOCLDY    63  61  94 CALM      30.18S
SEYMOUR +      MOCLDY    66  63  88 CALM      30.15R

$$




USA.gov is the U.S. government's official web portal to all federal, state and local government web resources and services.